Regional Weather Roundup
Issued by NWS

Home | Current Version | Previous Version | Graphics & Text | Print | Product List | Glossary On
Versions: 1 2 3 4 5 6 7 8 9 10 11 12 13 14 15 16 17 18 19 20 21 22 23 24 25 26 27 28 29 30 31 32 33 34 35 36 37 38 39 40 41 42 43 44 45 46 47 48 49 50
000
ASUS43 KFSD 220002
RWRSD

WEATHER ROUNDUP FOR SOUTH DAKOTA
NATIONAL WEATHER SERVICE SIOUX FALLS SD
700 PM CDT TUE OCT 21 2014

NOTE: "FAIR" INDICATES FEW OR NO CLOUDS BELOW 12,000 FEET WITH NO
SIGNIFICANT WEATHER AND/OR OBSTRUCTIONS TO VISIBILITY.


SDZ001>005-009-010-012>017-220100-
NORTHWEST AND NORTH CENTRAL SOUTH DAKOTA

CITY           SKY/WX    TMP DP  RH WIND       PRES   REMARKS
FAITH            N/A     70  47  43 S14       29.69R
MOBRIDGE       CLEAR     74  44  34 S20       29.69R
$$

SDZ012>016-024>037-041>051-057-063-072>074-220100-
SOUTHWEST AND SOUTH CENTRAL SOUTH DAKOTA

CITY           SKY/WX    TMP DP  RH WIND       PRES   REMARKS
RAPID CTY ARPT CLEAR     68  44  42 S9        29.73R
PIERRE         CLEAR     74  38  27 SE15      29.75F
CUSTER         MOCLDY    62  41  46 S6        29.87S
PHILIP         CLEAR     74  48  39 S13       29.71S
PINE RIDGE     CLEAR     72  47  40 S10       29.79S
SPEARFISH      FAIR      70  39  32 S8        29.75S
WINNER         FAIR      73  38  27 S15       29.83S
$$

SDZ004>011-016>023-039-040-220100-
NORTHEAST SOUTH DAKOTA

CITY           SKY/WX    TMP DP  RH WIND       PRES   REMARKS
ABERDEEN       CLEAR     71  44  37 SE14      29.83R
WATERTOWN      CLEAR     66  43  43 SE15      29.93S
SISSETON         N/A     63  42  46 SE16G25   29.91R
$$

SDZ017-020-022-023-036>040-048>070-220100-
SOUTHEAST SOUTH DAKOTA

CITY           SKY/WX    TMP DP  RH WIND       PRES   REMARKS
SIOUX FALLS    PTCLDY    66  43  43 SE12      29.97S
HURON          CLEAR     72  38  29 S10       29.87R
CHAMBERLAIN    CLEAR     69  36  30 SE10      29.84R
MITCHELL       CLEAR     71  40  32 S13       29.90R
YANKTON        CLEAR     68  43  40 SE10      29.95R
$$

ABBREVIATIONS USED IN REMARKS
   TC - TEMPERATURE IN CELSIUS
  WCI - WIND CHILL INDEX
   HX - HEAT INDEX
  VSB - VISIBILITY




USA.gov is the U.S. government's official web portal to all federal, state and local government web resources and services.